Tacoma Narrows, WA
on Friday, January 4, 2013

Friday
Previous Day Next Day
Daily Summary
 ActualAverageRecord
Temperature
Mean Temperature °F °F  
Max Temperature 48°F 43°F 86°F (1999)
Min Temperature 37°F 36°F 21°F (2004)
Degree Days
Heating Degree Days 22    
Moisture
Dew Point 40°F   
Average Humidity 89    
Maximum Humidity 93    
Minimum Humidity 77    
Precipitation
Precipitation 0.08 in in in ()
Wind
Wind Speed 3 mph   
Max Wind Speed 12 mph   
Max Gust Speed mph   
Visibility 8 miles   
Events Rain   
Averages and records for this station are not official NWS values.
Key: T is trace of precipitation, MM is missing value
Source: NWS Daily Summary
Seasonal Weather Averages
Time(PST)TemperatureDew PointHumidity Pressure Visibility Wind DirectionWind SpeedGust SpeedPrecipitationEvents Conditions
12:53 AM 37.0°F 35.1°F 93% 30.19 in 7.0 miles Calm Calm - 0.00 in   Overcast
1:51 AM 39.2°F 37.4°F 93% 30.20 in 4.0 miles South 3.5 mph - 0.01 in Rain Light Rain
1:53 AM 39.0°F 37.0°F 93% 30.21 in 4.0 miles South 3.5 mph - 0.01 in Rain Light Rain
2:53 AM 39.9°F 37.9°F 93% 30.24 in 4.0 miles SSE 3.5 mph - 0.03 in Rain Light Rain
3:35 AM 41.0°F 39.2°F 93% 30.23 in 2.5 miles Calm Calm - 0.02 in Rain Light Rain
3:43 AM 41.0°F 39.2°F 93% 30.23 in 3.0 miles Variable 4.6 mph - 0.02 in Rain Light Rain
3:53 AM 41.0°F 39.0°F 93% 30.25 in 4.0 miles South 5.8 mph - 0.02 in   Overcast
4:23 AM 41.0°F 39.2°F 93% 30.24 in 7.0 miles Calm Calm - N/A   Overcast
4:53 AM 42.1°F 39.9°F 92% 30.25 in 5.0 miles South 5.8 mph - 0.01 in Rain Light Rain
5:01 AM 42.8°F 39.2°F 87% 30.24 in 4.0 miles SSW 4.6 mph - 0.00 in Rain Light Rain
5:53 AM 43.0°F 39.9°F 89% 30.26 in 10.0 miles SSW 5.8 mph - 0.01 in   Overcast
6:53 AM 43.0°F 39.9°F 89% 30.27 in 10.0 miles South 3.5 mph - N/A   Overcast
7:53 AM 43.0°F 39.9°F 89% 30.28 in 10.0 miles South 9.2 mph - N/A   Overcast
8:41 AM 44.6°F 39.2°F 81% 30.29 in 10.0 miles Variable 6.9 mph - N/A   Overcast
8:53 AM 44.1°F 41.0°F 89% 30.31 in 10.0 miles SSW 6.9 mph - N/A   Overcast
9:53 AM 44.1°F 39.9°F 85% 30.32 in 10.0 miles South 11.5 mph - N/A   Overcast
9:56 AM 42.8°F 39.2°F 87% 30.31 in 10.0 miles South 10.4 mph - N/A   Overcast
10:11 AM 44.6°F 41.0°F 87% 30.32 in 10.0 miles SSW 9.2 mph - N/A   Overcast
10:53 AM 45.0°F 41.0°F 86% 30.32 in 10.0 miles SSW 9.2 mph - N/A   Overcast
11:53 AM 46.9°F 42.1°F 83% 30.31 in 10.0 miles SSW 6.9 mph - N/A   Scattered Clouds
12:53 PM 48.0°F 41.0°F 77% 30.29 in 10.0 miles SSW 8.1 mph - N/A   Scattered Clouds
1:53 PM 48.0°F 41.0°F 77% 30.26 in 10.0 miles Variable 3.5 mph - N/A   Clear
2:53 PM 46.9°F 41.0°F 80% 30.26 in 10.0 miles Calm Calm - N/A   Clear
3:53 PM 46.9°F 41.0°F 80% 30.26 in 10.0 miles NW 3.5 mph - N/A   Clear
4:53 PM 45.0°F 41.0°F 86% 30.23 in 10.0 miles Calm Calm - N/A   Partly Cloudy
5:53 PM 45.0°F 39.9°F 82% 30.22 in 10.0 miles Calm Calm - N/A   Clear
6:53 PM 42.1°F 39.0°F 89% 30.21 in 10.0 miles Calm Calm - N/A   Clear
7:53 PM 42.1°F 39.9°F 92% 30.20 in 10.0 miles Calm Calm - N/A   Mostly Cloudy
8:53 PM 43.0°F 39.9°F 89% 30.19 in 10.0 miles Calm Calm - N/A   Clear
9:53 PM 44.1°F 41.0°F 89% 30.18 in 10.0 miles Calm Calm - N/A   Mostly Cloudy
10:21 PM 42.8°F 41.0°F 93% 30.17 in 10.0 miles Calm Calm - N/A   Mostly Cloudy
10:32 PM 44.6°F 41.0°F 87% 30.17 in 10.0 miles Calm Calm - N/A   Overcast
10:53 PM 44.1°F 42.1°F 93% 30.17 in 10.0 miles Calm Calm - N/A   Overcast
11:01 PM 44.6°F 42.8°F 93% 30.17 in 10.0 miles Calm Calm - N/A   Overcast
11:17 PM 42.8°F 41.0°F 93% 30.16 in 7.0 miles Calm Calm - N/A   Overcast
11:24 PM 42.8°F 41.0°F 93% 30.16 in 7.0 miles Calm Calm - N/A   Overcast
11:34 PM 42.8°F 41.0°F 93% 30.17 in 7.0 miles Calm Calm - N/A   Overcast
11:47 PM 42.8°F 39.2°F 87% 30.17 in 1.8 miles Calm Calm - N/A   Overcast
11:53 PM 42.1°F 39.9°F 92% 30.17 in 1.5 miles Calm Calm - N/A   Overcast
Moon Phase
Jan. 04 Jan. 04 Jan. 11 Jan. 18 Jan. 26
Sunrise:07:56 AM (PST) Moon Rise:No Moon Rise/
Sunset:04:34 PM (PST) Moon Set:11:10 AM (PST)1/4

Copyright © 2014 The Weather Underground, Inc.